Погода в Туихоа

Вьетнам     13°03′27″N   109°19′42″E
темп.,
°C
ветер,
м/с
пор.,
м/с
влажн.,
%
обл.,
%
осадки,
мм/ч
давл.,
гПа
погр.,
м
22 апреля, чт
чт2201:00+24з1194100 3.7 101022
04:00+23юз119675 0.0 100921
07:00+25зюз118968 0.0 1011182
10:00+30всв2163100 0.0 10101104
13:00+30в4368100 1.3 1008814
16:00+29в447198 0.4 1006745
19:00+25вюв239096 2.3 1008142
22:00+24ю129398 0.0 101057
23 апреля, пт
пт2301:00+24ююз119367 0.0 100835
04:00+23зюз119578 0.0 100721
07:00+26з128473 0.0 1009260
10:00+31зсз125952 0.0 10091090
13:00+34в224827 0.1 10061763
16:00+31вюв446124 0.0 1005677
19:00+25юв118822 0.1 100835
22:00+24юз119024 0.0 100921
24 апреля, сб
сб2401:00+24зюз119168 0.0 100818
04:00+23з119367 0.0 100823
07:00+26з227992 0.0 1010248
10:00+33сз125226 0.0 10091299
13:00+34в545012 0.0 10071637
16:00+31в44605 0.1 1006794
19:00+26юв238657 0.1 100868
22:00+25ююз119114 0.1 101034
25 апреля, вс
вс2501:00+24зюз1191100 0.3 100926
04:00+24зюз11905 0.1 100825
07:00+27з12785 0.3 1010259
10:00+33ссз23515 0.0 10101312
13:00+35в334530 0.1 10071811
16:00+32вюв55595 0.0 1006602
19:00+26юв248896 0.1 1008126
22:00+25ююв129469 0.4 101161
26 апреля, пн
пн2601:00+24юз11968 0.9 100931
04:00+24юз119663 0.2 100923
07:00+27юз018328 0.2 1011290
10:00+32в325684 0.0 10111379
13:00+33в53535 0.1 10081462
16:00+31вюв55600 0.0 1007943
19:00+25юв23905 0.0 1010111
22:00+24ююв129498 0.1 101161